Regional Weather Roundup
Issued by NWS State College, PA

Home | Current Version | Previous Version | Graphics & Text | Print | Product List | Glossary On
Versions: 1 2 3 4 5 6 7 8 9 10 11 12 13 14 15 16 17 18 19 20 21 22 23 24 25 26 27 28 29 30 31 32 33 34 35 36 37 38 39 40 41 42 43 44 45 46 47 48 49 50
000
ASUS41 KCTP 180703
RWRCTP

REGIONAL WEATHER ROUNDUP
NATIONAL WEATHER SERVICE STATE COLLEGE PA
300 AM EDT FRI APR 18 2014

Note: "fair" indicates few or no clouds below 12,000 feet with no
significant weather and/or obstructions to visibility.

* = STATION THAT DOES NOT REPORT PRECIPITATION /E.G. RAIN...SNOW...ETC/
    THUNDER OR FOG.

PAZ002>004-007>009-013>016-020>023-029>032-180800-
WESTERN PENNSYLVANIA

CITY           SKY/WX    TMP DP  RH WIND       PRES   REMARKS
ERIE           CLOUDY    49  25  39 S22G29    30.27F
MEADVILLE      PTCLDY    44  26  49 VRB6      30.29F
FRANKLIN*      PTCLDY    39  25  56 SE10      30.33F
NEW CASTLE     FAIR      45  26  47 SE3       30.32F
BEAVER COUNTY  NOT AVBL
BUTLER*        PTCLDY    39  25  56 E7        30.34F
PITTSBURGH INT PTCLDY    45  27  49 SE6       30.32F
PITTSBURGH     PTCLDY    46  26  45 SE5       30.32S
INDIANA*       PTCLDY    41  28  60 E5        30.35F
LATROBE        CLEAR     45  30  57 E7        30.34F
WASHINGTON CO* PTCLDY    37  28  70 CALM      30.33F
$$

PAZ004>006-010>012-017>019-024>028-033>037-041-042-045-046-049>053-180800-
CENTRAL PENNSYLVANIA

CITY           SKY/WX    TMP DP  RH WIND       PRES   REMARKS
BRADFORD       CLEAR     38  25  59 SE10      30.35F
DUBOIS         CLEAR     39  29  67 SE10      30.34F
CLEARFIELD     CLEAR     37  28  70 E5        30.39F
JOHNSTOWN      CLEAR     34  27  75 SE5       30.35F
ALTOONA        CLEAR     37  30  75 S5        30.42F
STATE COLLEGE  CLEAR     40  28  62 SE5       30.43F
WILLIAMSPORT   CLEAR     39  26  59 VRB5      30.47F
SELINSGROVE    CLEAR     38  28  67 SE6       30.50F
FT INDIANTOWN  NOT AVBL
CAPITAL CITY   CLEAR     37  29  72 SE9       30.51F
HARRISBURG     PTCLDY    37  28  70 SE8       30.51F
YORK           CLEAR     35  30  82 E7        30.50F
$$

PAZ038>040-043-044-047-048-054-055-060>062-067>071-180800-
EASTERN PENNSYLVANIA

CITY           SKY/WX    TMP DP  RH WIND       PRES   REMARKS
SCRANTON       CLEAR     33  26  75 VRB5      30.50F
MOUNT POCONO   CLOUDY    30  27  88 SE7       30.48F
ALLENTOWN      CLOUDY    38  29  70 E5        30.56F
QUAKERTOWN*    CLOUDY    37  28  70 E6        30.56F
READING        CLOUDY    38  29  70 E5        30.53F
LANCASTER      CLEAR     31  27  85 E5        30.52F
COATESVILLE    CLOUDY    36  28  75 E6        30.54F
POTTSTOWN      CLOUDY    36  30  79 NE3       30.57F
BLUE BELL      CLOUDY    37  30  75 E6        30.55F
DOYLESTOWN     CLOUDY    36  29  75 CALM      30.56F
WILLOW GROVE   NOT AVBL
NORTH PHILA    CLOUDY    40  28  62 E7        30.58F
PHILADELPHIA   CLOUDY    39  28  64 E10       30.56F
$$



USA.gov is the U.S. government's official web portal to all federal, state and local government web resources and services.